| time (UTC) | temp F | wind direction | speed MPH | gust MPH | rain 1hr in | rain 24hr in | rain mn in | humidity % | barometer mb |
| 20260906090515 | 86 | 307 | 8.0 | 24.0 | 0.00 | 0.00 | 0.00 | 48 | 1015.1 |
| 20260906090404 | 86 | 309 | 8.0 | 24.0 | 0.00 | 0.00 | 0.00 | 48 | 1015.2 |
| 20260906090315 | 85 | 309 | 8.0 | 24.0 | 0.00 | 0.00 | 0.00 | 48 | 1015.2 |
| 20260906090204 | 85 | 310 | 7.0 | 24.0 | 0.00 | 0.00 | 0.00 | 47 | 1015.2 |
| 20260906090116 | 85 | 311 | 7.0 | 24.0 | 0.00 | 0.00 | 0.00 | 48 | 1015.2 |
| 20260906090003 | 85 | 307 | 7.0 | 24.0 | 0.00 | 0.00 | 0.00 | 48 | 1015.2 |
| 20260906085916 | 85 | 307 | 7.0 | 24.0 | 0.00 | 0.00 | 0.00 | 48 | 1015.2 |
| 20260906085803 | 85 | 310 | 7.0 | 24.0 | 0.00 | 0.00 | 0.00 | 48 | 1015.1 |
| 20260906085716 | 85 | 312 | 7.0 | 24.0 | 0.00 | 0.00 | 0.00 | 48 | 1015.2 |
| 20260906085604 | 85 | 310 | 6.0 | 24.0 | 0.00 | 0.00 | 0.00 | 49 | 1015.1 |
| 20260906085515 | 85 | 312 | 7.0 | 24.0 | 0.00 | 0.00 | 0.00 | 49 | 1015.1 |
| 20260906085404 | 85 | 311 | 7.0 | 24.0 | 0.00 | 0.00 | 0.00 | 49 | 1015.1 |
| 20260906085316 | 85 | 309 | 7.0 | 18.0 | 0.00 | 0.00 | 0.00 | 50 | 1015.1 |
| 20260906085204 | 85 | 305 | 6.0 | 22.0 | 0.00 | 0.00 | 0.00 | 50 | 1015.1 |
| 20260906085115 | 85 | 302 | 6.0 | 22.0 | 0.00 | 0.00 | 0.00 | 51 | 1015.1 |
| 20260906085004 | 85 | 305 | 6.0 | 22.0 | 0.00 | 0.00 | 0.00 | 51 | 1015.0 |
| 20260906084916 | 85 | 303 | 6.0 | 22.0 | 0.00 | 0.00 | 0.00 | 51 | 1015.1 |
| 20260906084804 | 85 | 301 | 6.0 | 22.0 | 0.00 | 0.00 | 0.00 | 50 | 1015.1 |
| 20260906084715 | 85 | 299 | 6.0 | 22.0 | 0.00 | 0.00 | 0.00 | 51 | 1015.1 |
| 20260906084604 | 85 | 304 | 6.0 | 22.0 | 0.00 | 0.00 | 0.00 | 50 | 1015.1 |
| 20260906084516 | 85 | 300 | 6.0 | 22.0 | 0.00 | 0.00 | 0.00 | 51 | 1015.1 |
| 20260906084403 | 85 | 299 | 6.0 | 22.0 | 0.00 | 0.00 | 0.00 | 50 | 1015.1 |
| 20260906084315 | 85 | 301 | 6.0 | 22.0 | 0.00 | 0.00 | 0.00 | 50 | 1015.1 |
| 20260906084203 | 85 | 304 | 6.0 | 18.0 | 0.00 | 0.00 | 0.00 | 51 | 1015.2 |
| 20260906084115 | 85 | 305 | 6.0 | 18.0 | 0.00 | 0.00 | 0.00 | 52 | 1015.1 |
| 20260906084004 | 85 | 298 | 6.0 | 18.0 | 0.00 | 0.00 | 0.00 | 52 | 1015.2 |
| 20260906083916 | 85 | 305 | 6.0 | 18.0 | 0.00 | 0.00 | 0.00 | 53 | 1015.2 |
| 20260906083804 | 85 | 305 | 6.0 | 18.0 | 0.00 | 0.00 | 0.00 | 53 | 1015.2 |
| 20260906083716 | 85 | 302 | 6.0 | 18.0 | 0.00 | 0.00 | 0.00 | 53 | 1015.1 |
| 20260906083604 | 85 | 295 | 6.0 | 18.0 | 0.00 | 0.00 | 0.00 | 52 | 1015.2 |
| 20260906083516 | 85 | 306 | 7.0 | 18.0 | 0.00 | 0.00 | 0.00 | 53 | 1015.2 |
| 20260906083404 | 84 | 310 | 7.0 | 18.0 | 0.00 | 0.00 | 0.00 | 52 | 1015.1 |
| 20260906083315 | 84 | 307 | 7.0 | 18.0 | 0.00 | 0.00 | 0.00 | 52 | 1015.2 |
| 20260906083204 | 84 | 305 | 8.0 | 18.0 | 0.00 | 0.00 | 0.00 | 52 | 1015.2 |
| 20260906083116 | 84 | 306 | 8.0 | 18.0 | 0.00 | 0.00 | 0.00 | 53 | 1015.2 |
| 20260906083003 | 84 | 311 | 9.0 | 18.0 | 0.00 | 0.00 | 0.00 | 53 | 1015.2 |
| 20260906082915 | 84 | 310 | 9.0 | 20.0 | 0.00 | 0.00 | 0.00 | 53 | 1015.2 |
| 20260906082804 | 84 | 310 | 9.0 | 20.0 | 0.00 | 0.00 | 0.00 | 53 | 1015.2 |
| 20260906082716 | 84 | 312 | 10.0 | 20.0 | 0.00 | 0.00 | 0.00 | 53 | 1015.2 |
| 20260906082603 | 84 | 319 | 10.0 | 20.0 | 0.00 | 0.00 | 0.00 | 54 | 1015.2 |
| 20260906082515 | 84 | 315 | 10.0 | 22.0 | 0.00 | 0.00 | 0.00 | 54 | 1015.1 |
| 20260906082404 | 83 | 316 | 10.0 | 22.0 | 0.00 | 0.00 | 0.00 | 53 | 1015.1 |
| 20260906082315 | 83 | 317 | 10.0 | 22.0 | 0.00 | 0.00 | 0.00 | 53 | 1015.2 |
| 20260906082203 | 83 | 321 | 10.0 | 22.0 | 0.00 | 0.00 | 0.00 | 55 | 1015.2 |
| 20260906082116 | 83 | 321 | 11.0 | 22.0 | 0.00 | 0.00 | 0.00 | 55 | 1015.3 |
| 20260906082003 | 83 | 321 | 11.0 | 22.0 | 0.00 | 0.00 | 0.00 | 55 | 1015.3 |
| 20260906081916 | 83 | 319 | 11.0 | 22.0 | 0.00 | 0.00 | 0.00 | 54 | 1015.3 |
| 20260906081803 | 83 | 321 | 11.0 | 22.0 | 0.00 | 0.00 | 0.00 | 55 | 1015.3 |
| 20260906081715 | 83 | 321 | 10.0 | 22.0 | 0.00 | 0.00 | 0.00 | 54 | 1015.3 |
| 20260906081604 | 83 | 319 | 10.0 | 22.0 | 0.00 | 0.00 | 0.00 | 54 | 1015.3 |
| 20260906081516 | 83 | 318 | 10.0 | 26.0 | 0.00 | 0.00 | 0.00 | 55 | 1015.3 |
| 20260906081403 | 83 | 317 | 10.0 | 26.0 | 0.00 | 0.00 | 0.00 | 54 | 1015.3 |
| 20260906081315 | 83 | 317 | 10.0 | 26.0 | 0.00 | 0.00 | 0.00 | 55 | 1015.3 |
| 20260906081203 | 83 | 316 | 10.0 | 26.0 | 0.00 | 0.00 | 0.00 | 55 | 1015.3 |
| 20260906081116 | 83 | 315 | 9.0 | 26.0 | 0.00 | 0.00 | 0.00 | 55 | 1015.3 |
| 20260906081003 | 83 | 315 | 9.0 | 26.0 | 0.00 | 0.00 | 0.00 | 55 | 1015.3 |
| 20260906080916 | 83 | 313 | 9.0 | 26.0 | 0.00 | 0.00 | 0.00 | 55 | 1015.3 |
| 20260906080803 | 83 | 310 | 9.0 | 26.0 | 0.00 | 0.00 | 0.00 | 55 | 1015.3 |
| 20260906080716 | 83 | 313 | 9.0 | 26.0 | 0.00 | 0.00 | 0.00 | 54 | 1015.3 |
| 20260906080604 | 83 | 311 | 8.0 | 26.0 | 0.00 | 0.00 | 0.00 | 54 | 1015.3 |
| 20260906080516 | 83 | 311 | 8.0 | 24.0 | 0.00 | 0.00 | 0.00 | 54 | 1015.3 |
| 20260906080404 | 83 | 310 | 8.0 | 24.0 | 0.00 | 0.00 | 0.00 | 54 | 1015.3 |
| 20260906080315 | 83 | 310 | 8.0 | 24.0 | 0.00 | 0.00 | 0.00 | 54 | 1015.2 |
| 20260906080203 | 83 | 311 | 8.0 | 24.0 | 0.00 | 0.00 | 0.00 | 54 | 1015.2 |
| 20260906080116 | 83 | 314 | 8.0 | 20.0 | 0.00 | 0.00 | 0.00 | 54 | 1015.3 |
| 20260906080003 | 83 | 316 | 8.0 | 20.0 | 0.00 | 0.00 | 0.00 | 54 | 1015.2 |
| 20260906075915 | 83 | 318 | 8.0 | 20.0 | 0.00 | 0.00 | 0.00 | 54 | 1015.3 |
| 20260906075804 | 83 | 318 | 8.0 | 20.0 | 0.00 | 0.00 | 0.00 | 54 | 1015.2 |
| 20260906075715 | 83 | 314 | 7.0 | 20.0 | 0.00 | 0.00 | 0.00 | 54 | 1015.2 |
| 20260906075603 | 83 | 318 | 7.0 | 18.0 | 0.00 | 0.00 | 0.00 | 54 | 1015.3 |
| 20260906075515 | 83 | 317 | 7.0 | 18.0 | 0.00 | 0.00 | 0.00 | 54 | 1015.3 |
| 20260906075404 | 83 | 316 | 7.0 | 18.0 | 0.00 | 0.00 | 0.00 | 55 | 1015.3 |
| 20260906075315 | 83 | 315 | 7.0 | 18.0 | 0.00 | 0.00 | 0.00 | 55 | 1015.3 |
| 20260906075204 | 83 | 310 | 7.0 | 18.0 | 0.00 | 0.00 | 0.00 | 55 | 1015.3 |
| 20260906075115 | 83 | 310 | 7.0 | 18.0 | 0.00 | 0.00 | 0.00 | 54 | 1015.3 |
| 20260906075004 | 83 | 309 | 7.0 | 18.0 | 0.00 | 0.00 | 0.00 | 54 | 1015.3 |
| 20260906074915 | 83 | 309 | 7.0 | 20.0 | 0.00 | 0.00 | 0.00 | 54 | 1015.3 |
| 20260906074804 | 83 | 310 | 7.0 | 20.0 | 0.00 | 0.00 | 0.00 | 53 | 1015.3 |
| 20260906074715 | 83 | 314 | 6.0 | 20.0 | 0.00 | 0.00 | 0.00 | 53 | 1015.3 |
| 20260906074604 | 83 | 317 | 6.0 | 20.0 | 0.00 | 0.00 | 0.00 | 52 | 1015.3 |
| 20260906074515 | 83 | 319 | 6.0 | 20.0 | 0.00 | 0.00 | 0.00 | 52 | 1015.2 |
| 20260906074404 | 83 | 322 | 6.0 | 20.0 | 0.00 | 0.00 | 0.00 | 52 | 1015.2 |
| 20260906074316 | 83 | 325 | 5.0 | 20.0 | 0.00 | 0.00 | 0.00 | 52 | 1015.2 |
| 20260906074205 | 83 | 330 | 5.0 | 20.0 | 0.00 | 0.00 | 0.00 | 53 | 1015.2 |
| 20260906074116 | 83 | 326 | 5.0 | 20.0 | 0.00 | 0.00 | 0.00 | 53 | 1015.2 |
| 20260906074004 | 83 | 322 | 5.0 | 20.0 | 0.00 | 0.00 | 0.00 | 52 | 1015.2 |
| 20260906073915 | 83 | 321 | 5.0 | 18.0 | 0.00 | 0.00 | 0.00 | 52 | 1015.2 |
| 20260906073804 | 84 | 320 | 4.0 | 18.0 | 0.00 | 0.00 | 0.00 | 52 | 1015.3 |
| 20260906073715 | 84 | 316 | 4.0 | 18.0 | 0.00 | 0.00 | 0.00 | 52 | 1015.2 |
| 20260906073603 | 84 | 309 | 4.0 | 18.0 | 0.00 | 0.00 | 0.00 | 52 | 1015.2 |
| 20260906073515 | 84 | 305 | 4.0 | 18.0 | 0.00 | 0.00 | 0.00 | 52 | 1015.2 |
| 20260906073404 | 84 | 303 | 4.0 | 18.0 | 0.00 | 0.00 | 0.00 | 52 | 1015.1 |
| 20260906073315 | 84 | 300 | 4.0 | 18.0 | 0.00 | 0.00 | 0.00 | 52 | 1015.1 |
| 20260906073204 | 84 | 301 | 4.0 | 18.0 | 0.00 | 0.00 | 0.00 | 52 | 1015.1 |
| 20260906073115 | 84 | 307 | 4.0 | 18.0 | 0.00 | 0.00 | 0.00 | 52 | 1015.0 |
| 20260906073004 | 84 | 318 | 4.0 | 15.0 | 0.00 | 0.00 | 0.00 | 53 | 1015.1 |
| 20260906072915 | 83 | 324 | 4.0 | 15.0 | 0.00 | 0.00 | 0.00 | 53 | 1015.1 |
| 20260906072804 | 83 | 326 | 4.0 | 15.0 | 0.00 | 0.00 | 0.00 | 53 | 1015.0 |
| 20260906072714 | 83 | 325 | 4.0 | 15.0 | 0.00 | 0.00 | 0.00 | 53 | 1015.0 |
| 20260906072604 | 83 | 319 | 4.0 | 17.0 | 0.00 | 0.00 | 0.00 | 53 | 1015.0 |
| 20260906072515 | 83 | 320 | 4.0 | 17.0 | 0.00 | 0.00 | 0.00 | 53 | 1015.0 |
| 20260906072404 | 83 | 318 | 4.0 | 17.0 | 0.00 | 0.00 | 0.00 | 53 | 1015.1 |
| 20260906072315 | 83 | 313 | 4.0 | 17.0 | 0.00 | 0.00 | 0.00 | 53 | 1015.1 |
| 20260906072204 | 83 | 310 | 4.0 | 17.0 | 0.00 | 0.00 | 0.00 | 54 | 1015.1 |
| 20260906072116 | 83 | 308 | 4.0 | 17.0 | 0.00 | 0.00 | 0.00 | 54 | 1015.1 |
| 20260906072004 | 83 | 304 | 4.0 | 17.0 | 0.00 | 0.00 | 0.00 | 54 | 1015.1 |
| 20260906071915 | 83 | 304 | 4.0 | 17.0 | 0.00 | 0.00 | 0.00 | 54 | 1015.0 |
| 20260906071804 | 83 | 309 | 4.0 | 17.0 | 0.00 | 0.00 | 0.00 | 54 | 1015.0 |
| 20260906071715 | 83 | 309 | 4.0 | 17.0 | 0.00 | 0.00 | 0.00 | 55 | 1015.0 |
| 20260906071604 | 83 | 317 | 4.0 | 13.0 | 0.00 | 0.00 | 0.00 | 55 | 1015.0 |
| 20260906071515 | 83 | 317 | 5.0 | 13.0 | 0.00 | 0.00 | 0.00 | 55 | 1015.0 |
| 20260906071403 | 83 | 319 | 5.0 | 13.0 | 0.00 | 0.00 | 0.00 | 55 | 1015.0 |
| 20260906071316 | 83 | 320 | 5.0 | 13.0 | 0.00 | 0.00 | 0.00 | 56 | 1015.0 |
| 20260906071204 | 83 | 320 | 5.0 | 15.0 | 0.00 | 0.00 | 0.00 | 57 | 1015.0 |
| 20260906071115 | 82 | 319 | 5.0 | 15.0 | 0.00 | 0.00 | 0.00 | 57 | 1015.0 |
| 20260906071004 | 82 | 321 | 5.0 | 15.0 | 0.00 | 0.00 | 0.00 | 57 | 1015.0 |
| 20260906070915 | 82 | 317 | 6.0 | 17.0 | 0.00 | 0.00 | 0.00 | 57 | 1015.0 |
| 20260906070804 | 82 | 313 | 6.0 | 17.0 | 0.00 | 0.00 | 0.00 | 57 | 1015.1 |
| 20260906070715 | 82 | 314 | 6.0 | 17.0 | 0.00 | 0.00 | 0.00 | 57 | 1015.1 |
| 20260906070604 | 82 | 313 | 6.0 | 17.0 | 0.00 | 0.00 | 0.00 | 57 | 1015.0 |
| 20260906070515 | 82 | 312 | 6.0 | 17.0 | 0.00 | 0.00 | 0.00 | 57 | 1015.1 |
| 20260906070404 | 82 | 314 | 6.0 | 18.0 | 0.00 | 0.00 | 0.00 | 57 | 1015.0 |
| 20260906070316 | 82 | 315 | 6.0 | 18.0 | 0.00 | 0.00 | 0.00 | 57 | 1015.0 |
| 20260906070203 | 82 | 319 | 6.0 | 18.0 | 0.00 | 0.00 | 0.00 | 57 | 1015.0 |
| 20260906070116 | 82 | 324 | 6.0 | 18.0 | 0.00 | 0.00 | 0.00 | 57 | 1015.0 |
| 20260906070004 | 82 | 324 | 6.0 | 18.0 | 0.00 | 0.00 | 0.00 | 58 | 1015.0 |
| 20260906065915 | 82 | 326 | 5.0 | 18.0 | 0.00 | 0.00 | 0.00 | 58 | 1015.0 |
| 20260906065804 | 81 | 327 | 5.0 | 18.0 | 0.00 | 0.00 | 0.00 | 58 | 1015.0 |
| 20260906065715 | 81 | 324 | 5.0 | 18.0 | 0.00 | 0.00 | 0.00 | 58 | 1015.0 |
| 20260906065604 | 81 | 322 | 5.0 | 18.0 | 0.00 | 0.00 | 0.00 | 58 | 1015.0 |
| 20260906065516 | 82 | 321 | 5.0 | 18.0 | 0.00 | 0.00 | 0.00 | 58 | 1015.0 |
| 20260906065404 | 82 | 320 | 5.0 | 15.0 | 0.00 | 0.00 | 0.00 | 58 | 1015.0 |
| 20260906065315 | 81 | 319 | 5.0 | 15.0 | 0.00 | 0.00 | 0.00 | 58 | 1015.0 |
| 20260906065205 | 81 | 314 | 4.0 | 15.0 | 0.00 | 0.00 | 0.00 | 58 | 1015.0 |
| 20260906065116 | 81 | 310 | 4.0 | 15.0 | 0.00 | 0.00 | 0.00 | 59 | 1015.0 |
| 20260906065004 | 81 | 306 | 4.0 | 15.0 | 0.00 | 0.00 | 0.00 | 58 | 1015.0 |
| 20260906064915 | 81 | 303 | 4.0 | 15.0 | 0.00 | 0.00 | 0.00 | 58 | 1015.0 |
| 20260906064805 | 81 | 299 | 4.0 | 15.0 | 0.00 | 0.00 | 0.00 | 59 | 1015.0 |
| 20260906064716 | 81 | 299 | 4.0 | 15.0 | 0.00 | 0.00 | 0.00 | 59 | 1015.0 |
| 20260906064604 | 81 | 298 | 4.0 | 15.0 | 0.00 | 0.00 | 0.00 | 59 | 1015.0 |
| 20260906064515 | 81 | 299 | 4.0 | 15.0 | 0.00 | 0.00 | 0.00 | 60 | 1015.0 |
| 20260906064404 | 81 | 296 | 4.0 | 15.0 | 0.00 | 0.00 | 0.00 | 60 | 1014.9 |
| 20260906064316 | 81 | 296 | 4.0 | 15.0 | 0.00 | 0.00 | 0.00 | 60 | 1015.0 |
| 20260906064204 | 81 | 301 | 4.0 | 15.0 | 0.00 | 0.00 | 0.00 | 60 | 1014.9 |
| 20260906064115 | 81 | 300 | 4.0 | 15.0 | 0.00 | 0.00 | 0.00 | 60 | 1014.9 |
| 20260906064005 | 81 | 298 | 4.0 | 15.0 | 0.00 | 0.00 | 0.00 | 60 | 1014.9 |
| 20260906063916 | 81 | 294 | 4.0 | 15.0 | 0.00 | 0.00 | 0.00 | 60 | 1014.9 |
| 20260906063804 | 81 | 296 | 4.0 | 15.0 | 0.00 | 0.00 | 0.00 | 61 | 1014.9 |
| 20260906063716 | 81 | 297 | 4.0 | 15.0 | 0.00 | 0.00 | 0.00 | 61 | 1014.9 |
| 20260906063604 | 81 | 296 | 4.0 | 15.0 | 0.00 | 0.00 | 0.00 | 61 | 1014.9 |
| 20260906063516 | 81 | 295 | 4.0 | 11.0 | 0.00 | 0.00 | 0.00 | 61 | 1014.9 |
| 20260906063404 | 81 | 297 | 4.0 | 11.0 | 0.00 | 0.00 | 0.00 | 61 | 1014.9 |
| 20260906063316 | 81 | 296 | 4.0 | 11.0 | 0.00 | 0.00 | 0.00 | 61 | 1014.8 |
| 20260906063204 | 81 | 294 | 4.0 | 11.0 | 0.00 | 0.00 | 0.00 | 61 | 1014.8 |
| 20260906063116 | 81 | 293 | 4.0 | 11.0 | 0.00 | 0.00 | 0.00 | 61 | 1014.8 |
| 20260906063003 | 81 | 295 | 4.0 | 11.0 | 0.00 | 0.00 | 0.00 | 60 | 1014.8 |
| 20260906062916 | 81 | 299 | 4.0 | 11.0 | 0.00 | 0.00 | 0.00 | 60 | 1014.8 |
| 20260906062803 | 81 | 300 | 4.0 | 11.0 | 0.00 | 0.00 | 0.00 | 60 | 1014.7 |
| 20260906062715 | 81 | 302 | 4.0 | 11.0 | 0.00 | 0.00 | 0.00 | 61 | 1014.7 |
| 20260906062604 | 81 | 311 | 4.0 | 11.0 | 0.00 | 0.00 | 0.00 | 60 | 1014.7 |
| 20260906062515 | 81 | 317 | 4.0 | 11.0 | 0.00 | 0.00 | 0.00 | 60 | 1014.7 |
| 20260906062403 | 81 | 321 | 4.0 | 11.0 | 0.00 | 0.00 | 0.00 | 60 | 1014.7 |
| 20260906062316 | 81 | 325 | 3.0 | 11.0 | 0.00 | 0.00 | 0.00 | 60 | 1014.7 |
| 20260906062204 | 81 | 329 | 3.0 | 11.0 | 0.00 | 0.00 | 0.00 | 60 | 1014.7 |
| 20260906062115 | 81 | 337 | 3.0 | 11.0 | 0.00 | 0.00 | 0.00 | 60 | 1014.7 |
| 20260906062004 | 81 | 349 | 3.0 | 7.0 | 0.00 | 0.00 | 0.00 | 60 | 1014.6 |
| 20260906061915 | 81 | 354 | 3.0 | 7.0 | 0.00 | 0.00 | 0.00 | 60 | 1014.6 |
| 20260906061804 | 81 | 3 | 3.0 | 7.0 | 0.00 | 0.00 | 0.00 | 60 | 1014.6 |
| 20260906061716 | 81 | 1 | 3.0 | 7.0 | 0.00 | 0.00 | 0.00 | 60 | 1014.6 |
| 20260906061604 | 81 | 355 | 3.0 | 7.0 | 0.00 | 0.00 | 0.00 | 60 | 1014.6 |
| 20260906061516 | 81 | 353 | 4.0 | 7.0 | 0.00 | 0.00 | 0.00 | 60 | 1014.6 |
| 20260906061404 | 80 | 2 | 4.0 | 7.0 | 0.00 | 0.00 | 0.00 | 60 | 1014.6 |
| 20260906061317 | 80 | 1 | 4.0 | 9.0 | 0.00 | 0.00 | 0.00 | 60 | 1014.6 |
| 20260906061204 | 80 | 7 | 4.0 | 9.0 | 0.00 | 0.00 | 0.00 | 60 | 1014.6 |
| 20260906061116 | 80 | 9 | 4.0 | 13.0 | 0.00 | 0.00 | 0.00 | 60 | 1014.6 |
| 20260906061004 | 80 | 1 | 4.0 | 13.0 | 0.00 | 0.00 | 0.00 | 60 | 1014.6 |
| 20260906060916 | 80 | 356 | 4.0 | 13.0 | 0.00 | 0.00 | 0.00 | 60 | 1014.6 |
| 20260906060803 | 80 | 351 | 4.0 | 13.0 | 0.00 | 0.00 | 0.00 | 60 | 1014.6 |
| 20260906060716 | 80 | 346 | 4.0 | 13.0 | 0.00 | 0.00 | 0.00 | 60 | 1014.6 |
| 20260906060604 | 80 | 341 | 3.0 | 13.0 | 0.00 | 0.00 | 0.00 | 60 | 1014.6 |
| 20260906060515 | 80 | 337 | 3.0 | 13.0 | 0.00 | 0.00 | 0.00 | 61 | 1014.7 |
| 20260906060404 | 80 | 333 | 3.0 | 13.0 | 0.00 | 0.00 | 0.00 | 61 | 1014.6 |
| 20260906060317 | 80 | 333 | 3.0 | 13.0 | 0.00 | 0.00 | 0.00 | 61 | 1014.6 |
| 20260906060204 | 80 | 332 | 3.0 | 13.0 | 0.00 | 0.00 | 0.00 | 61 | 1014.6 |
| 20260906060116 | 80 | 331 | 3.0 | 13.0 | 0.00 | 0.00 | 0.00 | 61 | 1014.6 |
| 20260906060004 | 79 | 341 | 3.0 | 9.0 | 0.00 | 0.00 | 0.00 | 61 | 1014.6 |
| 20260906055915 | 79 | 342 | 3.0 | 9.0 | 0.00 | 0.00 | 0.00 | 61 | 1014.6 |
| 20260906055804 | 79 | 340 | 3.0 | 9.0 | 0.00 | 0.00 | 0.00 | 61 | 1014.6 |
| 20260906055716 | 79 | 342 | 3.0 | 9.0 | 0.00 | 0.00 | 0.00 | 62 | 1014.6 |
| 20260906055604 | 79 | 342 | 3.0 | 9.0 | 0.00 | 0.00 | 0.00 | 62 | 1014.6 |
| 20260906055517 | 79 | 347 | 3.0 | 9.0 | 0.00 | 0.00 | 0.00 | 62 | 1014.6 |
| 20260906055405 | 79 | 342 | 3.0 | 9.0 | 0.00 | 0.00 | 0.00 | 62 | 1014.6 |
| 20260906055317 | 78 | 339 | 3.0 | 9.0 | 0.00 | 0.00 | 0.00 | 62 | 1014.6 |
| 20260906055204 | 78 | 337 | 4.0 | 9.0 | 0.00 | 0.00 | 0.00 | 62 | 1014.5 |
| 20260906055116 | 78 | 325 | 4.0 | 13.0 | 0.00 | 0.00 | 0.00 | 62 | 1014.6 |
| 20260906055004 | 78 | 322 | 4.0 | 13.0 | 0.00 | 0.00 | 0.00 | 63 | 1014.5 |
| 20260906054916 | 78 | 335 | 4.0 | 13.0 | 0.00 | 0.00 | 0.00 | 63 | 1014.5 |
| 20260906054804 | 78 | 348 | 4.0 | 13.0 | 0.00 | 0.00 | 0.00 | 63 | 1014.5 |
| 20260906054716 | 78 | 358 | 4.0 | 13.0 | 0.00 | 0.00 | 0.00 | 63 | 1014.5 |
| 20260906054604 | 78 | 11 | 4.0 | 13.0 | 0.00 | 0.00 | 0.00 | 63 | 1014.6 |
| 20260906054516 | 78 | 22 | 3.0 | 15.0 | 0.00 | 0.00 | 0.00 | 63 | 1014.5 |
| 20260906054403 | 78 | 29 | 3.0 | 15.0 | 0.00 | 0.00 | 0.00 | 63 | 1014.6 |
| 20260906054315 | 78 | 36 | 3.0 | 15.0 | 0.00 | 0.00 | 0.00 | 63 | 1014.6 |
| 20260906054204 | 78 | 41 | 3.0 | 15.0 | 0.00 | 0.00 | 0.00 | 64 | 1014.5 |
| 20260906054116 | 77 | 53 | 2.0 | 15.0 | 0.00 | 0.00 | 0.00 | 64 | 1014.5 |
| 20260906054003 | 77 | 59 | 2.0 | 15.0 | 0.00 | 0.00 | 0.00 | 63 | 1014.5 |
| 20260906053916 | 77 | 63 | 2.0 | 15.0 | 0.00 | 0.00 | 0.00 | 63 | 1014.6 |
| 20260906053804 | 77 | 63 | 1.0 | 15.0 | 0.00 | 0.00 | 0.00 | 63 | 1014.5 |
| 20260906053716 | 77 | 67 | 1.0 | 15.0 | 0.00 | 0.00 | 0.00 | 64 | 1014.5 |
| 20260906053604 | 77 | 72 | 1.0 | 15.0 | 0.00 | 0.00 | 0.00 | 64 | 1014.5 |
| 20260906053516 | 77 | 74 | 1.0 | 6.0 | 0.00 | 0.00 | 0.00 | 63 | 1014.5 |
| 20260906053403 | 77 | 75 | 0.0 | 6.0 | 0.00 | 0.00 | 0.00 | 63 | 1014.5 |
| 20260906053316 | 77 | 76 | 0.0 | 6.0 | 0.00 | 0.00 | 0.00 | 63 | 1014.5 |
| 20260906053203 | 77 | 89 | 0.0 | 6.0 | 0.00 | 0.00 | 0.00 | 63 | 1014.5 |
| 20260906053117 | 77 | 108 | 0.0 | 6.0 | 0.00 | 0.00 | 0.00 | 63 | 1014.5 |
| 20260906053003 | 77 | 129 | 1.0 | 4.0 | 0.00 | 0.00 | 0.00 | 63 | 1014.5 |
| 20260906052915 | 77 | 140 | 1.0 | 4.0 | 0.00 | 0.00 | 0.00 | 63 | 1014.5 |
| 20260906052804 | 77 | 143 | 1.0 | 4.0 | 0.00 | 0.00 | 0.00 | 63 | 1014.5 |
| 20260906052715 | 77 | 156 | 1.0 | 4.0 | 0.00 | 0.00 | 0.00 | 63 | 1014.5 |
| 20260906052604 | 77 | 159 | 1.0 | 2.0 | 0.00 | 0.00 | 0.00 | 63 | 1014.5 |
| 20260906052516 | 77 | 159 | 1.0 | 2.0 | 0.00 | 0.00 | 0.00 | 63 | 1014.5 |
| 20260906052404 | 77 | 159 | 2.0 | 2.0 | 0.00 | 0.00 | 0.00 | 63 | 1014.4 |
| 20260906052316 | 77 | 160 | 2.0 | 6.0 | 0.00 | 0.00 | 0.00 | 63 | 1014.4 |
| 20260906052204 | 77 | 168 | 2.0 | 6.0 | 0.00 | 0.00 | 0.00 | 63 | 1014.4 |
| 20260906052116 | 77 | 178 | 2.0 | 6.0 | 0.00 | 0.00 | 0.00 | 63 | 1014.4 |
| 20260906052003 | 77 | 201 | 2.0 | 6.0 | 0.00 | 0.00 | 0.00 | 63 | 1014.4 |
| 20260906051916 | 77 | 214 | 3.0 | 6.0 | 0.00 | 0.00 | 0.00 | 63 | 1014.3 |
| 20260906051803 | 77 | 216 | 3.0 | 6.0 | 0.00 | 0.00 | 0.00 | 63 | 1014.3 |
| 20260906051715 | 77 | 215 | 3.0 | 6.0 | 0.00 | 0.00 | 0.00 | 63 | 1014.3 |
| 20260906051603 | 77 | 212 | 3.0 | 6.0 | 0.00 | 0.00 | 0.00 | 63 | 1014.3 |
| 20260906051515 | 77 | 208 | 3.0 | 6.0 | 0.00 | 0.00 | 0.00 | 63 | 1014.3 |
| 20260906051404 | 77 | 193 | 3.0 | 6.0 | 0.00 | 0.00 | 0.00 | 63 | 1014.3 |
| 20260906051316 | 77 | 190 | 3.0 | 6.0 | 0.00 | 0.00 | 0.00 | 63 | 1014.3 |
| 20260906051204 | 77 | 130 | 2.0 | 6.0 | 0.00 | 0.00 | 0.00 | 63 | 1014.2 |
| 20260906051116 | 77 | 112 | 2.0 | 6.0 | 0.00 | 0.00 | 0.00 | 63 | 1014.3 |
| 20260906051004 | 77 | 97 | 2.0 | 7.0 | 0.00 | 0.00 | 0.00 | 63 | 1014.3 |
| 20260906050916 | 77 | 91 | 2.0 | 7.0 | 0.00 | 0.00 | 0.00 | 63 | 1014.3 |
| 20260906050804 | 77 | 85 | 2.0 | 7.0 | 0.00 | 0.00 | 0.00 | 63 | 1014.3 |
| 20260906050715 | 77 | 84 | 2.0 | 7.0 | 0.00 | 0.00 | 0.00 | 63 | 1014.3 |
| 20260906050603 | 77 | 82 | 1.0 | 7.0 | 0.00 | 0.00 | 0.00 | 63 | 1014.3 |
| 20260906050516 | 77 | 81 | 1.0 | 7.0 | 0.00 | 0.00 | 0.00 | 63 | 1014.3 |
| 20260906050404 | 77 | 78 | 2.0 | 7.0 | 0.00 | 0.00 | 0.00 | 63 | 1014.3 |
| 20260906050316 | 77 | 79 | 2.0 | 7.0 | 0.00 | 0.00 | 0.00 | 63 | 1014.3 |
| 20260906050203 | 77 | 83 | 2.0 | 7.0 | 0.00 | 0.00 | 0.00 | 63 | 1014.3 |
| 20260906050115 | 77 | 83 | 2.0 | 7.0 | 0.00 | 0.00 | 0.00 | 63 | 1014.2 |
| 20260906050004 | 77 | 80 | 2.0 | 7.0 | 0.00 | 0.00 | 0.00 | 63 | 1014.2 |
| 20260906045916 | 77 | 74 | 2.0 | 6.0 | 0.00 | 0.00 | 0.00 | 63 | 1014.3 |
| 20260906045804 | 77 | 65 | 3.0 | 6.0 | 0.00 | 0.00 | 0.00 | 63 | 1014.2 |
| 20260906045715 | 77 | 55 | 3.0 | 6.0 | 0.00 | 0.00 | 0.00 | 63 | 1014.2 |
| 20260906045604 | 77 | 47 | 3.0 | 6.0 | 0.00 | 0.00 | 0.00 | 63 | 1014.2 |
| 20260906045516 | 77 | 42 | 3.0 | 6.0 | 0.00 | 0.00 | 0.00 | 63 | 1014.3 |
| 20260906045404 | 77 | 40 | 3.0 | 6.0 | 0.00 | 0.00 | 0.00 | 63 | 1014.3 |
| 20260906045315 | 77 | 42 | 3.0 | 6.0 | 0.00 | 0.00 | 0.00 | 62 | 1014.2 |
| 20260906045203 | 77 | 43 | 3.0 | 6.0 | 0.00 | 0.00 | 0.00 | 62 | 1014.3 |
| 20260906045116 | 77 | 44 | 3.0 | 6.0 | 0.00 | 0.00 | 0.00 | 62 | 1014.3 |
| 20260906045003 | 77 | 46 | 4.0 | 6.0 | 0.00 | 0.00 | 0.00 | 62 | 1014.3 |
| 20260906044930 | 77 | 50 | 4.0 | 6.0 | 0.00 | 0.00 | 0.00 | 62 | 1014.3 |
| 20260906044804 | 77 | 60 | 4.0 | 7.0 | 0.00 | 0.00 | 0.00 | 62 | 1014.2 |
| 20260906044715 | 77 | 65 | 4.0 | 7.0 | 0.00 | 0.00 | 0.00 | 62 | 1014.2 |
| 20260906044604 | 77 | 70 | 4.0 | 7.0 | 0.00 | 0.00 | 0.00 | 62 | 1014.2 |
| 20260906044515 | 77 | 74 | 4.0 | 7.0 | 0.00 | 0.00 | 0.00 | 62 | 1014.3 |
| 20260906044404 | 77 | 75 | 4.0 | 7.0 | 0.00 | 0.00 | 0.00 | 62 | 1014.2 |
| 20260906044315 | 77 | 75 | 4.0 | 7.0 | 0.00 | 0.00 | 0.00 | 62 | 1014.2 |
| 20260906044203 | 76 | 74 | 4.0 | 9.0 | 0.00 | 0.00 | 0.00 | 63 | 1014.2 |
| 20260906044116 | 77 | 75 | 4.0 | 9.0 | 0.00 | 0.00 | 0.00 | 62 | 1014.2 |
| 20260906044004 | 76 | 75 | 4.0 | 9.0 | 0.00 | 0.00 | 0.00 | 63 | 1014.1 |
| 20260906043915 | 76 | 76 | 4.0 | 9.0 | 0.00 | 0.00 | 0.00 | 62 | 1014.1 |
| 20260906043804 | 76 | 76 | 4.0 | 9.0 | 0.00 | 0.00 | 0.00 | 62 | 1014.1 |
| 20260906043715 | 76 | 77 | 5.0 | 9.0 | 0.00 | 0.00 | 0.00 | 62 | 1014.1 |
| 20260906043604 | 76 | 76 | 5.0 | 9.0 | 0.00 | 0.00 | 0.00 | 62 | 1014.1 |
| 20260906043516 | 76 | 75 | 5.0 | 9.0 | 0.00 | 0.00 | 0.00 | 62 | 1014.1 |
| 20260906043403 | 76 | 77 | 5.0 | 11.0 | 0.00 | 0.00 | 0.00 | 62 | 1014.1 |
| 20260906043315 | 76 | 76 | 5.0 | 11.0 | 0.00 | 0.00 | 0.00 | 62 | 1014.1 |
| 20260906043203 | 76 | 73 | 5.0 | 11.0 | 0.00 | 0.00 | 0.00 | 62 | 1014.1 |
| 20260906043115 | 76 | 72 | 6.0 | 11.0 | 0.00 | 0.00 | 0.00 | 62 | 1014.1 |
| 20260906043004 | 76 | 72 | 6.0 | 11.0 | 0.00 | 0.00 | 0.00 | 62 | 1014.0 |
| 20260906042915 | 76 | 71 | 6.0 | 15.0 | 0.00 | 0.00 | 0.00 | 62 | 1014.0 |
| 20260906042804 | 76 | 72 | 6.0 | 15.0 | 0.00 | 0.00 | 0.00 | 62 | 1014.0 |
| 20260906042715 | 76 | 73 | 6.0 | 15.0 | 0.00 | 0.00 | 0.00 | 62 | 1013.9 |
| 20260906042604 | 76 | 74 | 6.0 | 15.0 | 0.00 | 0.00 | 0.00 | 62 | 1014.0 |
| 20260906042515 | 76 | 75 | 6.0 | 15.0 | 0.00 | 0.00 | 0.00 | 62 | 1013.9 |
| 20260906042403 | 76 | 75 | 5.0 | 15.0 | 0.00 | 0.00 | 0.00 | 62 | 1013.9 |
| 20260906042315 | 76 | 75 | 5.0 | 15.0 | 0.00 | 0.00 | 0.00 | 62 | 1013.9 |
| 20260906042203 | 76 | 78 | 5.0 | 15.0 | 0.00 | 0.00 | 0.00 | 62 | 1013.8 |
| 20260906042115 | 76 | 78 | 5.0 | 15.0 | 0.00 | 0.00 | 0.00 | 62 | 1013.8 |
| 20260906042003 | 76 | 78 | 5.0 | 15.0 | 0.00 | 0.00 | 0.00 | 62 | 1013.8 |
| 20260906041916 | 76 | 78 | 5.0 | 15.0 | 0.00 | 0.00 | 0.00 | 62 | 1013.8 |
| 20260906041803 | 76 | 78 | 4.0 | 15.0 | 0.00 | 0.00 | 0.00 | 62 | 1013.8 |
| 20260906041716 | 76 | 79 | 4.0 | 15.0 | 0.00 | 0.00 | 0.00 | 62 | 1013.8 |
| 20260906041603 | 76 | 78 | 4.0 | 15.0 | 0.00 | 0.00 | 0.00 | 62 | 1013.8 |
| 20260906041516 | 76 | 77 | 4.0 | 15.0 | 0.00 | 0.00 | 0.00 | 62 | 1013.7 |
| 20260906041404 | 76 | 77 | 4.0 | 13.0 | 0.00 | 0.00 | 0.00 | 62 | 1013.8 |
| 20260906041315 | 76 | 77 | 5.0 | 13.0 | 0.00 | 0.00 | 0.00 | 62 | 1013.7 |
| 20260906041204 | 76 | 77 | 5.0 | 13.0 | 0.00 | 0.00 | 0.00 | 62 | 1013.7 |
| 20260906041115 | 76 | 77 | 5.0 | 13.0 | 0.00 | 0.00 | 0.00 | 62 | 1013.7 |
| 20260906041004 | 76 | 77 | 5.0 | 13.0 | 0.00 | 0.00 | 0.00 | 62 | 1013.7 |
| 20260906040915 | 76 | 77 | 5.0 | 13.0 | 0.00 | 0.00 | 0.00 | 62 | 1013.6 |
| 20260906040804 | 76 | 76 | 5.0 | 13.0 | 0.00 | 0.00 | 0.00 | 62 | 1013.7 |
| 20260906040716 | 76 | 75 | 5.0 | 13.0 | 0.00 | 0.00 | 0.00 | 62 | 1013.7 |
| 20260906040604 | 76 | 76 | 5.0 | 14.0 | 0.00 | 0.00 | 0.00 | 62 | 1013.7 |
| 20260906040515 | 76 | 75 | 5.0 | 14.0 | 0.00 | 0.00 | 0.00 | 62 | 1013.7 |
| 20260906040404 | 76 | 77 | 6.0 | 14.0 | 0.00 | 0.00 | 0.00 | 62 | 1013.7 |
| 20260906040316 | 76 | 76 | 6.0 | 14.0 | 0.00 | 0.00 | 0.00 | 62 | 1013.6 |
| 20260905225904 | 77 | 77 | 3.0 | 7.0 | 0.00 | 0.00 | 0.00 | 60 | 1013.9 |
| 20260905225816 | 77 | 78 | 3.0 | 7.0 | 0.00 | 0.00 | 0.00 | 60 | 1013.9 |
| 20260905225705 | 77 | 78 | 3.0 | 7.0 | 0.00 | 0.00 | 0.00 | 60 | 1013.9 |
| 20260905225616 | 77 | 77 | 3.0 | 7.0 | 0.00 | 0.00 | 0.00 | 60 | 1013.9 |
| 20260905225504 | 77 | 76 | 3.0 | 7.0 | 0.00 | 0.00 | 0.00 | 60 | 1013.9 |
| 20260905225416 | 77 | 75 | 2.0 | 7.0 | 0.00 | 0.00 | 0.00 | 60 | 1013.9 |
| 20260905225306 | 77 | 75 | 2.0 | 7.0 | 0.00 | 0.00 | 0.00 | 60 | 1013.9 |
| 20260905225216 | 77 | 74 | 2.0 | 7.0 | 0.00 | 0.00 | 0.00 | 60 | 1013.9 |
| 20260905225105 | 77 | 74 | 2.0 | 7.0 | 0.00 | 0.00 | 0.00 | 60 | 1013.8 |
| 20260905225017 | 77 | 74 | 2.0 | 7.0 | 0.00 | 0.00 | 0.00 | 60 | 1013.8 |
| 20260905224904 | 77 | 74 | 2.0 | 7.0 | 0.00 | 0.00 | 0.00 | 60 | 1013.8 |
| 20260905224816 | 77 | 74 | 1.0 | 6.0 | 0.00 | 0.00 | 0.00 | 60 | 1013.9 |
| 20260905224704 | 77 | 73 | 2.0 | 6.0 | 0.00 | 0.00 | 0.00 | 60 | 1013.9 |
| 20260905224616 | 77 | 79 | 2.0 | 6.0 | 0.00 | 0.00 | 0.00 | 60 | 1013.9 |
| 20260905224504 | 77 | 85 | 2.0 | 6.0 | 0.00 | 0.00 | 0.00 | 60 | 1013.9 |
| 20260905224416 | 77 | 91 | 2.0 | 6.0 | 0.00 | 0.00 | 0.00 | 60 | 1013.9 |
| 20260905224304 | 77 | 95 | 2.0 | 6.0 | 0.00 | 0.00 | 0.00 | 60 | 1013.9 |
| 20260905224217 | 77 | 96 | 2.0 | 6.0 | 0.00 | 0.00 | 0.00 | 60 | 1013.9 |
| 20260905224105 | 77 | 97 | 2.0 | 6.0 | 0.00 | 0.00 | 0.00 | 60 | 1013.9 |
| 20260905224017 | 77 | 98 | 3.0 | 6.0 | 0.00 | 0.00 | 0.00 | 60 | 1013.9 |
| 20260905223904 | 77 | 100 | 3.0 | 6.0 | 0.00 | 0.00 | 0.00 | 60 | 1013.9 |
| 20260905223816 | 77 | 100 | 3.0 | 9.0 | 0.00 | 0.00 | 0.00 | 60 | 1013.9 |
| 20260905223705 | 77 | 100 | 3.0 | 9.0 | 0.00 | 0.00 | 0.00 | 60 | 1014.0 |
| 20260905223616 | 77 | 96 | 3.0 | 9.0 | 0.00 | 0.00 | 0.00 | 60 | 1014.0 |
| 20260905223504 | 77 | 90 | 3.0 | 9.0 | 0.00 | 0.00 | 0.00 | 60 | 1014.0 |
| 20260905223416 | 77 | 86 | 3.0 | 9.0 | 0.00 | 0.00 | 0.00 | 60 | 1014.0 |
| 20260905223304 | 77 | 81 | 3.0 | 9.0 | 0.00 | 0.00 | 0.00 | 60 | 1014.0 |
| 20260905223216 | 77 | 80 | 3.0 | 9.0 | 0.00 | 0.00 | 0.00 | 60 | 1014.0 |
| 20260905223103 | 77 | 76 | 3.0 | 9.0 | 0.00 | 0.00 | 0.00 | 61 | 1014.0 |
| 20260905223015 | 77 | 71 | 3.0 | 9.0 | 0.00 | 0.00 | 0.00 | 61 | 1014.0 |
| 20260905222904 | 77 | 70 | 3.0 | 9.0 | 0.00 | 0.00 | 0.00 | 61 | 1014.0 |
| 20260905222816 | 77 | 69 | 3.0 | 11.0 | 0.00 | 0.00 | 0.00 | 61 | 1014.0 |
| 20260905222704 | 77 | 67 | 3.0 | 11.0 | 0.00 | 0.00 | 0.00 | 61 | 1014.0 |
| 20260905222617 | 77 | 67 | 3.0 | 11.0 | 0.00 | 0.00 | 0.00 | 61 | 1014.0 |
| 20260905222504 | 77 | 69 | 3.0 | 11.0 | 0.00 | 0.00 | 0.00 | 61 | 1014.0 |
| 20260905222416 | 77 | 71 | 3.0 | 11.0 | 0.00 | 0.00 | 0.00 | 61 | 1014.0 |
| 20260905222306 | 77 | 74 | 3.0 | 11.0 | 0.00 | 0.00 | 0.00 | 61 | 1014.0 |
| 20260905222216 | 77 | 75 | 3.0 | 11.0 | 0.00 | 0.00 | 0.00 | 61 | 1014.0 |
| 20260905222104 | 77 | 77 | 3.0 | 11.0 | 0.00 | 0.00 | 0.00 | 61 | 1014.0 |
| 20260905222016 | 77 | 81 | 3.0 | 11.0 | 0.00 | 0.00 | 0.00 | 61 | 1014.1 |
| 20260905221904 | 77 | 82 | 3.0 | 11.0 | 0.00 | 0.00 | 0.00 | 61 | 1014.0 |
| 20260905221816 | 77 | 80 | 3.0 | 9.0 | 0.00 | 0.00 | 0.00 | 61 | 1014.1 |
| 20260905221704 | 77 | 78 | 3.0 | 9.0 | 0.00 | 0.00 | 0.00 | 61 | 1014.1 |
| 20260905221616 | 77 | 78 | 3.0 | 9.0 | 0.00 | 0.00 | 0.00 | 61 | 1014.1 |
| 20260905221505 | 77 | 80 | 3.0 | 9.0 | 0.00 | 0.00 | 0.00 | 61 | 1014.1 |
| 20260905221416 | 77 | 81 | 2.0 | 9.0 | 0.00 | 0.00 | 0.00 | 61 | 1014.1 |
| 20260905221304 | 77 | 81 | 2.0 | 9.0 | 0.00 | 0.00 | 0.00 | 62 | 1014.1 |
| 20260905221216 | 77 | 82 | 2.0 | 9.0 | 0.00 | 0.00 | 0.00 | 62 | 1014.1 |
| 20260905221104 | 77 | 84 | 2.0 | 9.0 | 0.00 | 0.00 | 0.00 | 62 | 1014.1 |
| 20260905221016 | 77 | 79 | 2.0 | 9.0 | 0.00 | 0.00 | 0.00 | 62 | 1014.1 |
| 20260905220904 | 77 | 73 | 2.0 | 6.0 | 0.00 | 0.00 | 0.00 | 62 | 1014.1 |
| 20260905220816 | 77 | 73 | 1.0 | 6.0 | 0.00 | 0.00 | 0.00 | 62 | 1014.1 |
| 20260905220704 | 77 | 76 | 1.0 | 6.0 | 0.00 | 0.00 | 0.00 | 62 | 1014.1 |
| 20260905220616 | 77 | 70 | 1.0 | 6.0 | 0.00 | 0.00 | 0.00 | 62 | 1014.1 |
| 20260905220504 | 77 | 57 | 2.0 | 6.0 | 0.00 | 0.00 | 0.00 | 62 | 1014.2 |
| 20260905220417 | 77 | 45 | 2.0 | 6.0 | 0.00 | 0.00 | 0.00 | 62 | 1014.2 |
| 20260905220304 | 77 | 38 | 2.0 | 6.0 | 0.00 | 0.00 | 0.00 | 62 | 1014.2 |
| 20260905220216 | 77 | 27 | 2.0 | 6.0 | 0.00 | 0.00 | 0.00 | 62 | 1014.2 |
| 20260905220104 | 77 | 20 | 2.0 | 6.0 | 0.00 | 0.00 | 0.00 | 62 | 1014.2 |
| 20260905220016 | 77 | 13 | 2.0 | 6.0 | 0.00 | 0.00 | 0.00 | 62 | 1014.2 |
| 20260905215904 | 77 | 9 | 3.0 | 6.0 | 0.00 | 0.00 | 0.00 | 62 | 1014.2 |
| 20260905215815 | 77 | 2 | 3.0 | 6.0 | 0.00 | 0.00 | 0.00 | 62 | 1014.2 |
| 20260905215704 | 78 | 354 | 3.0 | 6.0 | 0.00 | 0.00 | 0.00 | 62 | 1014.2 |
| 20260905215615 | 78 | 344 | 4.0 | 6.0 | 0.00 | 0.00 | 0.00 | 61 | 1014.2 |
| 20260905215504 | 78 | 334 | 4.0 | 6.0 | 0.00 | 0.00 | 0.00 | 62 | 1014.2 |
| 20260905215415 | 78 | 328 | 4.0 | 7.0 | 0.00 | 0.00 | 0.00 | 62 | 1014.1 |
| 20260905215306 | 78 | 318 | 4.0 | 13.0 | 0.00 | 0.00 | 0.00 | 61 | 1014.1 |
| 20260905215215 | 78 | 321 | 4.0 | 17.0 | 0.00 | 0.00 | 0.00 | 62 | 1014.2 |
| 20260905215104 | 78 | 314 | 4.0 | 17.0 | 0.00 | 0.00 | 0.00 | 62 | 1014.2 |
| 20260905215016 | 78 | 322 | 4.0 | 17.0 | 0.00 | 0.00 | 0.00 | 62 | 1014.2 |
| 20260905214904 | 78 | 327 | 4.0 | 17.0 | 0.00 | 0.00 | 0.00 | 62 | 1014.2 |
| 20260905214816 | 78 | 333 | 4.0 | 17.0 | 0.00 | 0.00 | 0.00 | 62 | 1014.2 |
| 20260905214704 | 78 | 344 | 3.0 | 17.0 | 0.00 | 0.00 | 0.00 | 62 | 1014.3 |
| 20260905214616 | 78 | 350 | 3.0 | 17.0 | 0.00 | 0.00 | 0.00 | 62 | 1014.2 |
| 20260905214504 | 78 | 3 | 3.0 | 17.0 | 0.00 | 0.00 | 0.00 | 62 | 1014.3 |
| 20260905214415 | 78 | 1 | 3.0 | 17.0 | 0.00 | 0.00 | 0.00 | 62 | 1014.3 |
| 20260905214304 | 78 | 20 | 3.0 | 17.0 | 0.00 | 0.00 | 0.00 | 62 | 1014.3 |
| 20260905214216 | 78 | 21 | 3.0 | 17.0 | 0.00 | 0.00 | 0.00 | 61 | 1014.3 |
| 20260905214104 | 78 | 58 | 3.0 | 6.0 | 0.00 | 0.00 | 0.00 | 61 | 1014.2 |
| 20260905214017 | 78 | 12 | 3.0 | 6.0 | 0.00 | 0.00 | 0.00 | 61 | 1014.2 |
| 20260905213904 | 78 | 293 | 3.0 | 7.0 | 0.00 | 0.00 | 0.00 | 61 | 1014.2 |
| 20260905213818 | 78 | 292 | 3.0 | 7.0 | 0.00 | 0.00 | 0.00 | 61 | 1014.2 |
| 20260905213704 | 78 | 296 | 3.0 | 9.0 | 0.00 | 0.00 | 0.00 | 61 | 1014.2 |
| 20260905213615 | 78 | 296 | 3.0 | 9.0 | 0.00 | 0.00 | 0.00 | 61 | 1014.2 |
| 20260905213504 | 78 | 296 | 3.0 | 9.0 | 0.00 | 0.00 | 0.00 | 61 | 1014.2 |
| 20260905213416 | 78 | 293 | 3.0 | 9.0 | 0.00 | 0.00 | 0.00 | 61 | 1014.3 |
| 20260905213304 | 78 | 303 | 4.0 | 9.0 | 0.00 | 0.00 | 0.00 | 61 | 1014.3 |
| 20260905213216 | 78 | 308 | 4.0 | 9.0 | 0.00 | 0.00 | 0.00 | 61 | 1014.3 |
| 20260905213104 | 78 | 314 | 4.0 | 9.0 | 0.00 | 0.00 | 0.00 | 61 | 1014.4 |
| 20260905213017 | 78 | 320 | 4.0 | 9.0 | 0.00 | 0.00 | 0.00 | 61 | 1014.3 |
| 20260905212904 | 78 | 326 | 4.0 | 9.0 | 0.00 | 0.00 | 0.00 | 61 | 1014.4 |
| 20260905212816 | 78 | 324 | 4.0 | 9.0 | 0.00 | 0.00 | 0.00 | 61 | 1014.4 |
| 20260905212704 | 78 | 327 | 4.0 | 9.0 | 0.00 | 0.00 | 0.00 | 61 | 1014.4 |
| 20260905212616 | 78 | 339 | 4.0 | 9.0 | 0.00 | 0.00 | 0.00 | 61 | 1014.3 |
| 20260905212504 | 78 | 356 | 4.0 | 9.0 | 0.00 | 0.00 | 0.00 | 61 | 1014.4 |
| 20260905212416 | 78 | 5 | 4.0 | 17.0 | 0.00 | 0.00 | 0.00 | 61 | 1014.3 |
| 20260905212306 | 78 | 2 | 4.0 | 17.0 | 0.00 | 0.00 | 0.00 | 61 | 1014.3 |
| 20260905212215 | 78 | 11 | 4.0 | 17.0 | 0.00 | 0.00 | 0.00 | 61 | 1014.2 |
| 20260905212104 | 78 | 14 | 4.0 | 17.0 | 0.00 | 0.00 | 0.00 | 61 | 1014.2 |
| 20260905212017 | 78 | 13 | 4.0 | 17.0 | 0.00 | 0.00 | 0.00 | 62 | 1014.2 |
| 20260905211904 | 78 | 9 | 4.0 | 17.0 | 0.00 | 0.00 | 0.00 | 62 | 1014.2 |
| 20260905211816 | 78 | 5 | 4.0 | 17.0 | 0.00 | 0.00 | 0.00 | 61 | 1014.2 |
| 20260905211704 | 78 | 350 | 4.0 | 18.0 | 0.00 | 0.00 | 0.00 | 61 | 1014.3 |
| 20260905211616 | 78 | 337 | 4.0 | 18.0 | 0.00 | 0.00 | 0.00 | 61 | 1014.2 |
| 20260905211504 | 78 | 321 | 4.0 | 18.0 | 0.00 | 0.00 | 0.00 | 61 | 1014.3 |
| 20260905211416 | 78 | 315 | 4.0 | 18.0 | 0.00 | 0.00 | 0.00 | 62 | 1014.3 |
| 20260905211304 | 78 | 307 | 4.0 | 18.0 | 0.00 | 0.00 | 0.00 | 62 | 1014.3 |
| 20260905211216 | 78 | 285 | 4.0 | 18.0 | 0.00 | 0.00 | 0.00 | 62 | 1014.3 |
| 20260905211104 | 78 | 272 | 4.0 | 18.0 | 0.00 | 0.00 | 0.00 | 62 | 1014.3 |
| 20260905211016 | 78 | 260 | 4.0 | 18.0 | 0.00 | 0.00 | 0.00 | 62 | 1014.3 |
| 20260905210904 | 78 | 243 | 4.0 | 18.0 | 0.00 | 0.00 | 0.00 | 62 | 1014.3 |
| 20260905210816 | 78 | 222 | 4.0 | 18.0 | 0.00 | 0.00 | 0.00 | 62 | 1014.3 |
| 20260905210704 | 78 | 207 | 4.0 | 9.0 | 0.00 | 0.00 | 0.00 | 62 | 1014.2 |
| 20260905210615 | 78 | 205 | 4.0 | 9.0 | 0.00 | 0.00 | 0.00 | 62 | 1014.2 |
| 20260905210504 | 77 | 198 | 4.0 | 9.0 | 0.00 | 0.00 | 0.00 | 62 | 1014.2 |
| 20260905210417 | 77 | 198 | 4.0 | 9.0 | 0.00 | 0.00 | 0.00 | 62 | 1014.1 |
| 20260905210304 | 77 | 195 | 3.0 | 9.0 | 0.00 | 0.00 | 0.00 | 62 | 1014.1 |
| 20260905210205 | 77 | 208 | 3.0 | 9.0 | 0.00 | 0.00 | 0.00 | 62 | 1014.1 |
| 20260905210116 | 77 | 223 | 3.0 | 17.0 | 0.00 | 0.00 | 0.00 | 62 | 1014.1 |
| 20260905210014 | 77 | 207 | 3.0 | 17.0 | 0.00 | 0.00 | 0.00 | 62 | 1014.1 |
| 20260905205916 | 78 | 200 | 3.0 | 17.0 | 0.00 | 0.00 | 0.00 | 62 | 1014.1 |
| 20260905205804 | 78 | 191 | 3.0 | 17.0 | 0.00 | 0.00 | 0.00 | 62 | 1014.1 |
| 20260905205715 | 78 | 152 | 3.0 | 17.0 | 0.00 | 0.00 | 0.00 | 62 | 1014.1 |
| 20260905205604 | 78 | 112 | 3.0 | 17.0 | 0.00 | 0.00 | 0.00 | 62 | 1014.1 |
| 20260905205516 | 78 | 127 | 3.0 | 17.0 | 0.00 | 0.00 | 0.00 | 62 | 1014.1 |
| 20260905205404 | 78 | 129 | 3.0 | 17.0 | 0.00 | 0.00 | 0.00 | 62 | 1014.1 |
| 20260905205316 | 78 | 147 | 3.0 | 17.0 | 0.00 | 0.00 | 0.00 | 62 | 1014.1 |
| 20260905205205 | 77 | 145 | 3.0 | 17.0 | 0.00 | 0.00 | 0.00 | 62 | 1014.1 |
| 20260905205117 | 77 | 140 | 3.0 | 13.0 | 0.00 | 0.00 | 0.00 | 62 | 1014.1 |
| 20260905205003 | 77 | 153 | 4.0 | 13.0 | 0.00 | 0.00 | 0.00 | 63 | 1014.1 |
| 20260905204916 | 77 | 131 | 4.0 | 13.0 | 0.00 | 0.00 | 0.00 | 63 | 1014.1 |
| 20260905204804 | 77 | 118 | 4.0 | 13.0 | 0.00 | 0.00 | 0.00 | 63 | 1014.1 |
| 20260905204716 | 77 | 93 | 4.0 | 13.0 | 0.00 | 0.00 | 0.00 | 63 | 1014.1 |
| 20260905204604 | 78 | 55 | 4.0 | 13.0 | 0.00 | 0.00 | 0.00 | 63 | 1014.1 |
| 20260905204515 | 78 | 41 | 4.0 | 13.0 | 0.00 | 0.00 | 0.00 | 63 | 1014.2 |
| 20260905204404 | 78 | 59 | 4.0 | 13.0 | 0.00 | 0.00 | 0.00 | 63 | 1014.1 |
| 20260905204316 | 78 | 117 | 4.0 | 13.0 | 0.00 | 0.00 | 0.00 | 63 | 1014.1 |
| 20260905204204 | 77 | 148 | 4.0 | 13.0 | 0.00 | 0.00 | 0.00 | 63 | 1014.0 |
| 20260905204116 | 78 | 34 | 4.0 | 13.0 | 0.00 | 0.00 | 0.00 | 63 | 1014.0 |
| 20260905204004 | 78 | 343 | 4.0 | 13.0 | 0.00 | 0.00 | 0.00 | 63 | 1014.0 |
| 20260905203916 | 78 | 328 | 4.0 | 13.0 | 0.00 | 0.00 | 0.00 | 63 | 1014.0 |
| 20260905203804 | 78 | 330 | 4.0 | 13.0 | 0.00 | 0.00 | 0.00 | 63 | 1014.0 |
| 20260905203716 | 78 | 319 | 4.0 | 11.0 | 0.00 | 0.00 | 0.00 | 63 | 1014.0 |
| 20260905203604 | 78 | 290 | 3.0 | 11.0 | 0.00 | 0.00 | 0.00 | 63 | 1014.0 |
| 20260905203516 | 78 | 270 | 3.0 | 11.0 | 0.00 | 0.00 | 0.00 | 63 | 1014.0 |
| 20260905203405 | 78 | 308 | 3.0 | 9.0 | 0.00 | 0.00 | 0.00 | 63 | 1014.0 |
| 20260905203316 | 78 | 347 | 3.0 | 9.0 | 0.00 | 0.00 | 0.00 | 63 | 1014.1 |
| 20260905203204 | 78 | 83 | 3.0 | 9.0 | 0.00 | 0.00 | 0.00 | 63 | 1014.0 |
| 20260905203116 | 78 | 169 | 3.0 | 9.0 | 0.00 | 0.00 | 0.00 | 63 | 1014.1 |
| 20260905203004 | 78 | 177 | 3.0 | 7.0 | 0.00 | 0.00 | 0.00 | 63 | 1014.0 |
| 20260905202916 | 78 | 175 | 3.0 | 7.0 | 0.00 | 0.00 | 0.00 | 63 | 1014.1 |
| 20260905202804 | 78 | 185 | 3.0 | 7.0 | 0.00 | 0.00 | 0.00 | 63 | 1014.1 |
| 20260905202716 | 78 | 195 | 3.0 | 7.0 | 0.00 | 0.00 | 0.00 | 63 | 1014.1 |
| 20260905202604 | 78 | 211 | 3.0 | 7.0 | 0.00 | 0.00 | 0.00 | 63 | 1014.1 |
| 20260905202516 | 78 | 228 | 3.0 | 7.0 | 0.00 | 0.00 | 0.00 | 63 | 1014.1 |
| 20260905202405 | 78 | 245 | 3.0 | 7.0 | 0.00 | 0.00 | 0.00 | 62 | 1014.1 |
| 20260905202317 | 78 | 251 | 3.0 | 7.0 | 0.00 | 0.00 | 0.00 | 62 | 1014.0 |
| 20260905202205 | 78 | 260 | 3.0 | 7.0 | 0.00 | 0.00 | 0.00 | 62 | 1014.1 |
| 20260905202117 | 78 | 269 | 3.0 | 6.0 | 0.00 | 0.00 | 0.00 | 62 | 1014.1 |
| 20260905202005 | 78 | 270 | 3.0 | 4.0 | 0.00 | 0.00 | 0.00 | 62 | 1014.1 |
| 20260905201918 | 78 | 270 | 3.0 | 4.0 | 0.00 | 0.00 | 0.00 | 62 | 1014.1 |